Time,TemperatureF,DewpointF,PressureIn,WindDirection,WindDirectionDegrees,WindSpeedMPH,WindSpeedGustMPH,Humidity,HourlyPrecipIn,Conditions,Clouds,dailyrainin,SoftwareType,DateUTC
2013-05-06 00:00:00,50.3,46.9,30.14,East,89,0.0,3.0,88,0.00,,,0.00,Wunderground v.1.15,2013-05-06 05:00:00,
2013-05-06 00:05:00,50.3,46.9,30.13,South,172,1.0,3.0,88,0.00,,,0.00,Wunderground v.1.15,2013-05-06 05:05:00,
2013-05-06 00:10:00,50.3,46.9,30.13,SSE,167,1.0,1.0,88,0.00,,,0.00,Wunderground v.1.15,2013-05-06 05:10:00,
2013-05-06 00:15:00,50.2,46.8,30.13,ESE,107,1.0,3.0,88,0.00,,,0.00,Wunderground v.1.15,2013-05-06 05:15:00,
2013-05-06 00:20:00,50.2,46.8,30.13,SSE,160,0.0,3.0,88,0.00,,,0.00,Wunderground v.1.15,2013-05-06 05:20:00,
2013-05-06 00:25:00,50.2,46.8,30.13,ESE,110,0.0,3.0,88,0.00,,,0.00,Wunderground v.1.15,2013-05-06 05:25:00,
2013-05-06 00:30:00,50.1,46.7,30.13,East,86,0.0,3.0,88,0.00,,,0.00,Wunderground v.1.15,2013-05-06 05:30:00,
2013-05-06 00:40:00,50.1,47.0,30.13,ESE,102,0.0,3.0,89,0.00,,,0.00,Wunderground v.1.15,2013-05-06 05:40:00,
2013-05-06 00:45:00,50.2,47.1,30.13,SSW,197,0.0,3.0,89,0.00,,,0.00,Wunderground v.1.15,2013-05-06 05:45:00,
2013-05-06 00:50:00,50.2,47.1,30.13,WNW,290,0.0,3.0,89,0.00,,,0.00,Wunderground v.1.15,2013-05-06 05:50:00,
2013-05-06 00:55:00,50.1,47.0,30.13,NNW,341,0.0,3.0,89,0.00,,,0.00,Wunderground v.1.15,2013-05-06 05:55:00,
2013-05-06 01:00:00,50.1,47.0,30.13,WNW,288,0.0,3.0,89,0.00,,,0.00,Wunderground v.1.15,2013-05-06 06:00:00,
2013-05-06 01:05:00,50.1,47.0,30.13,ESE,114,0.0,3.0,89,0.00,,,0.00,Wunderground v.1.15,2013-05-06 06:05:00,
2013-05-06 01:10:00,50.0,46.9,30.13,WNW,290,0.0,3.0,89,0.00,,,0.00,Wunderground v.1.15,2013-05-06 06:10:00,
2013-05-06 01:20:00,49.9,46.8,30.13,West,259,0.0,3.0,89,0.00,,,0.00,Wunderground v.1.15,2013-05-06 06:20:00,
2013-05-06 01:25:00,49.9,46.8,30.13,East,79,0.0,3.0,89,0.00,,,0.00,Wunderground v.1.15,2013-05-06 06:25:00,
2013-05-06 01:30:00,49.8,46.7,30.13,East,84,0.0,3.0,89,0.00,,,0.00,Wunderground v.1.15,2013-05-06 06:30:00,
2013-05-06 01:35:00,49.8,46.7,30.12,WNW,287,0.0,3.0,89,0.00,,,0.00,Wunderground v.1.15,2013-05-06 06:35:00,
2013-05-06 01:40:00,49.7,46.6,30.12,NNE,33,0.0,3.0,89,0.00,,,0.00,Wunderground v.1.15,2013-05-06 06:40:00,
2013-05-06 01:45:00,49.7,46.6,30.12,NNE,33,0.0,3.0,89,0.00,,,0.00,Wunderground v.1.15,2013-05-06 06:45:00,
2013-05-06 01:55:00,49.6,46.8,30.12,North,4,0.0,3.0,90,0.00,,,0.00,Wunderground v.1.15,2013-05-06 06:55:00,
2013-05-06 02:00:00,49.6,46.8,30.12,East,83,0.0,3.0,90,0.00,,,0.00,Wunderground v.1.15,2013-05-06 07:00:00,
2013-05-06 02:05:00,49.5,46.7,30.12,East,91,0.0,3.0,90,0.00,,,0.00,Wunderground v.1.15,2013-05-06 07:05:00,
2013-05-06 02:10:00,49.5,47.0,30.12,SW,219,0.0,3.0,91,0.00,,,0.00,Wunderground v.1.15,2013-05-06 07:10:00,
2013-05-06 02:15:00,49.5,47.0,30.11,ESE,120,0.0,3.0,91,0.00,,,0.00,Wunderground v.1.15,2013-05-06 07:15:00,
2013-05-06 02:20:00,49.4,46.6,30.11,West,262,0.0,3.0,90,0.00,,,0.00,Wunderground v.1.15,2013-05-06 07:20:00,
2013-05-06 02:25:00,49.4,46.6,30.11,South,176,0.0,3.0,90,0.00,,,0.00,Wunderground v.1.15,2013-05-06 07:25:00,
2013-05-06 02:35:00,49.3,46.8,30.11,North,7,0.0,3.0,91,0.00,,,0.00,Wunderground v.1.15,2013-05-06 07:35:00,
2013-05-06 02:40:00,49.3,46.8,30.11,East,97,0.0,3.0,91,0.00,,,0.00,Wunderground v.1.15,2013-05-06 07:40:00,
2013-05-06 02:45:00,49.2,46.7,30.11,SSE,158,1.0,3.0,91,0.00,,,0.00,Wunderground v.1.15,2013-05-06 07:45:00,
2013-05-06 02:50:00,49.1,46.6,30.11,West,262,1.0,3.0,91,0.00,,,0.00,Wunderground v.1.15,2013-05-06 07:50:00,
2013-05-06 02:55:00,49.1,46.6,30.11,South,174,1.0,3.0,91,0.00,,,0.00,Wunderground v.1.15,2013-05-06 07:55:00,
2013-05-06 03:00:00,49.1,46.9,30.11,East,101,0.0,3.0,92,0.00,,,0.00,Wunderground v.1.15,2013-05-06 08:00:00,
2013-05-06 03:10:00,48.9,46.7,30.11,ESE,105,0.0,3.0,92,0.00,,,0.00,Wunderground v.1.15,2013-05-06 08:10:00,
2013-05-06 03:15:00,48.9,46.7,30.11,ENE,74,0.0,3.0,92,0.00,,,0.00,Wunderground v.1.15,2013-05-06 08:15:00,
2013-05-06 03:20:00,48.8,46.6,30.11,East,96,0.0,3.0,92,0.00,,,0.00,Wunderground v.1.15,2013-05-06 08:20:00,
2013-05-06 03:25:00,48.8,46.6,30.11,ESE,107,0.0,3.0,92,0.00,,,0.00,Wunderground v.1.15,2013-05-06 08:25:00,
2013-05-06 03:30:00,48.7,46.5,30.11,NE,56,0.0,3.0,92,0.00,,,0.00,Wunderground v.1.15,2013-05-06 08:30:00,
2013-05-06 03:35:00,48.7,46.5,30.11,NE,43,0.0,3.0,92,0.00,,,0.00,Wunderground v.1.15,2013-05-06 08:35:00,
2013-05-06 03:40:00,48.7,46.5,30.11,East,89,0.0,3.0,92,0.00,,,0.00,Wunderground v.1.15,2013-05-06 08:40:00,
2013-05-06 03:50:00,48.5,46.3,30.11,SE,145,0.0,3.0,92,0.00,,,0.00,Wunderground v.1.15,2013-05-06 08:50:00,
2013-05-06 03:55:00,48.5,46.6,30.12,WSW,256,0.0,3.0,93,0.00,,,0.00,Wunderground v.1.15,2013-05-06 08:55:00,
2013-05-06 04:00:00,48.5,46.6,30.12,ESE,110,0.0,3.0,93,0.00,,,0.00,Wunderground v.1.15,2013-05-06 09:00:00,
2013-05-06 04:05:00,48.4,46.5,30.12,ESE,105,0.0,3.0,93,0.00,,,0.00,Wunderground v.1.15,2013-05-06 09:05:00,
2013-05-06 04:10:00,48.3,46.4,30.12,SE,133,1.0,1.0,93,0.00,,,0.00,Wunderground v.1.15,2013-05-06 09:10:00,
2013-05-06 04:15:00,48.2,46.3,30.12,ESE,106,0.0,3.0,93,0.00,,,0.00,Wunderground v.1.15,2013-05-06 09:15:00,
2013-05-06 04:20:00,48.2,46.3,30.12,East,101,0.0,3.0,93,0.00,,,0.00,Wunderground v.1.15,2013-05-06 09:20:00,
2013-05-06 04:25:00,48.1,46.2,30.12,West,272,0.0,3.0,93,0.00,,,0.00,Wunderground v.1.15,2013-05-06 09:25:00,
2013-05-06 04:35:00,47.9,46.0,30.12,ESE,107,0.0,3.0,93,0.00,,,0.00,Wunderground v.1.15,2013-05-06 09:35:00,
2013-05-06 04:40:00,47.9,46.0,30.12,ESE,110,0.0,3.0,93,0.00,,,0.00,Wunderground v.1.15,2013-05-06 09:40:00,
2013-05-06 04:45:00,47.9,46.0,30.12,SE,125,0.0,3.0,93,0.00,,,0.00,Wunderground v.1.15,2013-05-06 09:45:00,
2013-05-06 04:50:00,47.8,45.9,30.12,East,100,0.0,3.0,93,0.00,,,0.00,Wunderground v.1.15,2013-05-06 09:50:00,
2013-05-06 04:55:00,47.7,45.8,30.12,East,98,0.0,3.0,93,0.00,,,0.00,Wunderground v.1.15,2013-05-06 09:55:00,
2013-05-06 05:00:00,47.7,45.8,30.12,SW,214,0.0,3.0,93,0.00,,,0.00,Wunderground v.1.15,2013-05-06 10:00:00,
2013-05-06 05:05:00,47.7,45.8,30.12,SW,214,0.0,3.0,93,0.00,,,0.00,Wunderground v.1.15,2013-05-06 10:05:00,
2013-05-06 05:15:00,47.7,45.8,30.12,ESE,114,0.0,3.0,93,0.00,,,0.00,Wunderground v.1.15,2013-05-06 10:15:00,
2013-05-06 05:20:00,47.6,45.7,30.13,ESE,113,0.0,3.0,93,0.00,,,0.00,Wunderground v.1.15,2013-05-06 10:20:00,
2013-05-06 05:25:00,47.6,45.7,30.12,ESE,113,0.0,3.0,93,0.00,,,0.00,Wunderground v.1.15,2013-05-06 10:25:00,
2013-05-06 05:30:00,47.6,45.7,30.13,East,86,0.0,3.0,93,0.00,,,0.00,Wunderground v.1.15,2013-05-06 10:30:00,
2013-05-06 05:35:00,47.6,45.7,30.13,ESE,110,0.0,3.0,93,0.00,,,0.00,Wunderground v.1.15,2013-05-06 10:35:00,
2013-05-06 05:40:00,47.6,45.7,30.13,WSW,240,0.0,3.0,93,0.00,,,0.00,Wunderground v.1.15,2013-05-06 10:40:00,
2013-05-06 05:50:00,47.6,45.7,30.12,ENE,78,0.0,3.0,93,0.00,,,0.00,Wunderground v.1.15,2013-05-06 10:50:00,
2013-05-06 05:55:00,47.6,45.7,30.12,NE,52,0.0,3.0,93,0.00,,,0.00,Wunderground v.1.15,2013-05-06 10:55:00,
2013-05-06 06:00:00,47.5,45.6,30.12,ESE,117,0.0,3.0,93,0.00,,,0.00,Wunderground v.1.15,2013-05-06 11:00:00,
2013-05-06 06:05:00,47.5,45.6,30.12,East,101,0.0,3.0,93,0.00,,,0.00,Wunderground v.1.15,2013-05-06 11:05:00,
2013-05-06 06:10:00,47.5,45.6,30.12,East,86,0.0,3.0,93,0.00,,,0.00,Wunderground v.1.15,2013-05-06 11:10:00,
2013-05-06 06:15:00,47.4,45.5,30.12,SE,134,0.0,3.0,93,0.00,,,0.00,Wunderground v.1.15,2013-05-06 11:15:00,
2013-05-06 06:20:00,47.4,45.5,30.13,East,94,1.0,1.0,93,0.00,,,0.00,Wunderground v.1.15,2013-05-06 11:20:00,
2013-05-06 06:30:00,47.4,45.8,30.13,ESE,108,0.0,3.0,94,0.00,,,0.00,Wunderground v.1.15,2013-05-06 11:30:00,
2013-05-06 06:35:00,47.4,45.8,30.13,ESE,110,0.0,3.0,94,0.00,,,0.00,Wunderground v.1.15,2013-05-06 11:35:00,
2013-05-06 06:40:00,47.4,45.8,30.13,East,98,0.0,3.0,94,0.00,,,0.00,Wunderground v.1.15,2013-05-06 11:40:00,
2013-05-06 06:45:00,47.4,45.8,30.13,ESE,107,0.0,3.0,94,0.00,,,0.00,Wunderground v.1.15,2013-05-06 11:45:00,
2013-05-06 06:50:00,47.4,45.5,30.13,East,91,0.0,3.0,93,0.00,,,0.00,Wunderground v.1.15,2013-05-06 11:50:00,
2013-05-06 06:55:00,47.3,45.4,30.13,West,277,0.0,3.0,93,0.00,,,0.00,Wunderground v.1.15,2013-05-06 11:55:00,
2013-05-06 07:00:00,47.3,45.7,30.13,ESE,113,0.0,3.0,94,0.00,,,0.00,Wunderground v.1.15,2013-05-06 12:00:00,
2013-05-06 07:10:00,47.5,45.9,30.14,WNW,287,0.0,3.0,94,0.00,,,0.00,Wunderground v.1.15,2013-05-06 12:10:00,
2013-05-06 07:15:00,47.5,45.9,30.14,East,98,0.0,3.0,94,0.00,,,0.00,Wunderground v.1.15,2013-05-06 12:15:00,
2013-05-06 07:20:00,47.5,45.9,30.14,WNW,298,0.0,3.0,94,0.00,,,0.00,Wunderground v.1.15,2013-05-06 12:20:00,
2013-05-06 07:25:00,47.6,46.0,30.14,WSW,255,0.0,3.0,94,0.00,,,0.00,Wunderground v.1.15,2013-05-06 12:25:00,
2013-05-06 07:30:00,47.6,46.0,30.14,East,82,0.0,3.0,94,0.00,,,0.00,Wunderground v.1.15,2013-05-06 12:30:00,
2013-05-06 07:35:00,47.7,46.1,30.14,East,98,0.0,3.0,94,0.00,,,0.00,Wunderground v.1.15,2013-05-06 12:35:00,
2013-05-06 07:45:00,47.9,46.0,30.14,NE,56,0.0,3.0,93,0.00,,,0.00,Wunderground v.1.15,2013-05-06 12:45:00,
2013-05-06 07:50:00,48.0,46.1,30.14,SE,126,0.0,3.0,93,0.00,,,0.00,Wunderground v.1.15,2013-05-06 12:50:00,
2013-05-06 07:55:00,48.0,46.1,30.14,SE,136,0.0,3.0,93,0.00,,,0.00,Wunderground v.1.15,2013-05-06 12:55:00,
2013-05-06 08:00:00,48.0,46.1,30.15,East,100,0.0,3.0,93,0.00,,,0.00,Wunderground v.1.15,2013-05-06 13:00:00,
2013-05-06 08:05:00,48.0,45.8,30.15,WSW,255,0.0,3.0,92,0.00,,,0.00,Wunderground v.1.15,2013-05-06 13:05:00,
2013-05-06 08:10:00,48.1,45.9,30.15,ESE,118,1.0,1.0,92,0.00,,,0.00,Wunderground v.1.15,2013-05-06 13:10:00,
2013-05-06 08:15:00,48.1,45.9,30.15,SE,131,0.0,3.0,92,0.00,,,0.00,Wunderground v.1.15,2013-05-06 13:15:00,
2013-05-06 08:25:00,48.2,46.0,30.15,NNE,15,1.0,3.0,92,0.00,,,0.00,Wunderground v.1.15,2013-05-06 13:25:00,
2013-05-06 08:30:00,48.2,46.0,30.15,ESE,107,1.0,1.0,92,0.00,,,0.00,Wunderground v.1.15,2013-05-06 13:30:00,
2013-05-06 08:35:00,48.3,46.1,30.15,ESE,120,1.0,3.0,92,0.00,,,0.00,Wunderground v.1.15,2013-05-06 13:35:00,
2013-05-06 08:40:00,48.4,46.2,30.15,WSW,242,0.0,3.0,92,0.00,,,0.00,Wunderground v.1.15,2013-05-06 13:40:00,
2013-05-06 08:45:00,48.5,46.3,30.15,WSW,250,0.0,3.0,92,0.00,,,0.00,Wunderground v.1.15,2013-05-06 13:45:00,
2013-05-06 08:50:00,48.5,46.0,30.15,North,11,0.0,3.0,91,0.00,,,0.00,Wunderground v.1.15,2013-05-06 13:50:00,
2013-05-06 08:55:00,48.5,46.0,30.15,SW,231,0.0,3.0,91,0.00,,,0.00,Wunderground v.1.15,2013-05-06 13:55:00,
2013-05-06 09:00:00,48.6,46.1,30.15,WSW,256,0.0,0.0,91,0.00,,,0.00,Wunderground v.1.15,2013-05-06 14:00:00,
2013-05-06 09:10:00,48.7,46.2,30.15,ENE,58,1.0,2.0,91,0.00,,,0.00,Wunderground v.1.15,2013-05-06 14:10:00,
2013-05-06 09:15:00,48.7,46.2,30.15,SE,126,1.0,2.0,91,0.00,,,0.00,Wunderground v.1.15,2013-05-06 14:15:00,
2013-05-06 09:20:00,48.8,46.3,30.15,ENE,73,0.0,1.0,91,0.00,,,0.00,Wunderground v.1.15,2013-05-06 14:20:00,
2013-05-06 09:25:00,48.9,46.4,30.16,ESE,106,1.0,1.0,91,0.00,,,0.00,Wunderground v.1.15,2013-05-06 14:25:00,
2013-05-06 09:30:00,48.9,46.1,30.16,East,80,0.0,0.0,90,0.00,,,0.00,Wunderground v.1.15,2013-05-06 14:30:00,
2013-05-06 09:40:00,49.0,46.2,30.15,NE,56,1.0,1.0,90,0.00,,,0.00,Wunderground v.1.15,2013-05-06 14:40:00,
2013-05-06 09:45:00,49.1,46.3,30.15,SE,131,0.0,2.0,90,0.00,,,0.00,Wunderground v.1.15,2013-05-06 14:45:00,
2013-05-06 09:50:00,49.2,46.4,30.15,ENE,66,0.0,2.0,90,0.00,,,0.00,Wunderground v.1.15,2013-05-06 14:50:00,
2013-05-06 09:55:00,49.3,46.5,30.15,West,269,0.0,2.0,90,0.00,,,0.00,Wunderground v.1.15,2013-05-06 14:55:00,
2013-05-06 10:00:00,49.3,46.5,30.15,NW,304,0.0,2.0,90,0.00,,,0.00,Wunderground v.1.15,2013-05-06 15:00:00,
2013-05-06 10:05:00,49.3,46.5,30.15,East,93,0.0,2.0,90,0.00,,,0.00,Wunderground v.1.15,2013-05-06 15:05:00,
2013-05-06 10:10:00,49.4,46.3,30.15,East,90,1.0,2.0,89,0.00,,,0.00,Wunderground v.1.15,2013-05-06 15:10:00,
2013-05-06 10:15:00,49.5,46.7,30.15,SE,140,0.0,2.0,90,0.00,,,0.00,Wunderground v.1.15,2013-05-06 15:15:00,
2013-05-06 10:25:00,49.7,46.9,30.15,East,97,0.0,2.0,90,0.00,,,0.00,Wunderground v.1.15,2013-05-06 15:25:00,
2013-05-06 10:30:00,49.8,46.7,30.15,ESE,118,1.0,2.0,89,0.00,,,0.00,Wunderground v.1.15,2013-05-06 15:30:00,
2013-05-06 10:35:00,50.1,47.0,30.15,SW,232,1.0,2.0,89,0.00,,,0.00,Wunderground v.1.15,2013-05-06 15:35:00,
2013-05-06 10:40:00,50.3,47.2,30.15,East,94,0.0,2.0,89,0.00,,,0.00,Wunderground v.1.15,2013-05-06 15:40:00,
2013-05-06 10:45:00,50.5,47.4,30.15,ESE,106,0.0,2.0,89,0.00,,,0.00,Wunderground v.1.15,2013-05-06 15:45:00,
2013-05-06 10:50:00,50.7,47.3,30.15,East,92,1.0,1.0,88,0.00,,,0.00,Wunderground v.1.15,2013-05-06 15:50:00,
2013-05-06 10:55:00,50.7,47.0,30.15,East,86,1.0,2.0,87,0.00,,,0.00,Wunderground v.1.15,2013-05-06 15:55:00,
2013-05-06 11:05:00,51.3,47.6,30.15,East,87,1.0,2.0,87,0.00,,,0.00,Wunderground v.1.15,2013-05-06 16:05:00,
2013-05-06 11:10:00,51.2,47.5,30.15,West,264,1.0,1.0,87,0.00,,,0.00,Wunderground v.1.15,2013-05-06 16:10:00,
2013-05-06 11:15:00,51.5,47.8,30.15,SW,232,1.0,2.0,87,0.00,,,0.00,Wunderground v.1.15,2013-05-06 16:15:00,
2013-05-06 11:20:00,52.0,47.9,30.15,East,98,0.0,2.0,86,0.00,,,0.00,Wunderground v.1.15,2013-05-06 16:20:00,
2013-05-06 11:25:00,52.2,47.8,30.15,East,83,0.0,2.0,85,0.00,,,0.00,Wunderground v.1.15,2013-05-06 16:25:00,
2013-05-06 11:30:00,52.3,48.2,30.15,SW,226,1.0,1.0,86,0.00,,,0.00,Wunderground v.1.15,2013-05-06 16:30:00,
2013-05-06 11:40:00,52.5,48.1,30.15,WNW,285,0.0,2.0,85,0.00,,,0.00,Wunderground v.1.15,2013-05-06 16:40:00,
2013-05-06 11:45:00,52.9,48.2,30.15,WSW,238,0.0,2.0,84,0.00,,,0.00,Wunderground v.1.15,2013-05-06 16:45:00,
2013-05-06 11:50:00,53.1,48.4,30.15,SE,137,0.0,2.0,84,0.00,,,0.00,Wunderground v.1.15,2013-05-06 16:50:00,
2013-05-06 11:55:00,53.1,48.4,30.15,East,99,1.0,2.0,84,0.00,,,0.00,Wunderground v.1.15,2013-05-06 16:55:00,
2013-05-06 12:00:00,53.6,49.2,30.14,NW,323,0.0,2.0,85,0.00,,,0.00,Wunderground v.1.15,2013-05-06 17:00:00,
2013-05-06 12:05:00,54.0,49.0,30.14,West,264,0.0,2.0,83,0.00,,,0.00,Wunderground v.1.15,2013-05-06 17:05:00,
2013-05-06 12:10:00,54.1,48.7,30.14,East,82,0.0,2.0,82,0.00,,,0.00,Wunderground v.1.15,2013-05-06 17:10:00,
2013-05-06 12:20:00,54.5,49.1,30.14,ENE,65,1.0,2.0,82,0.00,,,0.00,Wunderground v.1.15,2013-05-06 17:20:00,
2013-05-06 12:25:00,54.6,49.2,30.14,ENE,73,0.0,2.0,82,0.00,,,0.00,Wunderground v.1.15,2013-05-06 17:25:00,
2013-05-06 12:30:00,55.0,49.6,30.14,WSW,250,0.0,2.0,82,0.00,,,0.00,Wunderground v.1.15,2013-05-06 17:30:00,
2013-05-06 12:35:00,55.4,49.3,30.14,SSW,204,0.0,2.0,80,0.00,,,0.00,Wunderground v.1.15,2013-05-06 17:35:00,
2013-05-06 12:40:00,55.8,49.7,30.14,NE,52,1.0,1.0,80,0.00,,,0.00,Wunderground v.1.15,2013-05-06 17:40:00,
2013-05-06 12:45:00,55.9,49.8,30.14,NNW,340,1.0,2.0,80,0.00,,,0.00,Wunderground v.1.15,2013-05-06 17:45:00,
2013-05-06 12:55:00,56.6,50.2,30.14,East,99,0.0,2.0,79,0.00,,,0.00,Wunderground v.1.15,2013-05-06 17:55:00,
2013-05-06 13:00:00,57.0,50.2,30.13,East,95,1.0,1.0,78,0.00,,,0.00,Wunderground v.1.15,2013-05-06 18:00:00,
2013-05-06 13:05:00,57.7,51.2,30.13,ESE,113,1.0,2.0,79,0.00,,,0.00,Wunderground v.1.15,2013-05-06 18:05:00,
2013-05-06 13:10:00,58.4,50.9,30.12,SW,231,1.0,2.0,76,0.00,,,0.00,Wunderground v.1.15,2013-05-06 18:10:00,
2013-05-06 13:15:00,59.3,51.0,30.12,West,266,1.0,2.0,74,0.00,,,0.00,Wunderground v.1.15,2013-05-06 18:15:00,
2013-05-06 13:20:00,59.8,51.9,30.12,West,259,1.0,1.0,75,0.00,,,0.00,Wunderground v.1.15,2013-05-06 18:20:00,
2013-05-06 13:25:00,60.5,51.0,30.12,SE,129,0.0,2.0,71,0.00,,,0.00,Wunderground v.1.15,2013-05-06 18:25:00,
2013-05-06 13:35:00,61.4,52.3,30.12,ENE,78,1.0,2.0,72,0.00,,,0.00,Wunderground v.1.15,2013-05-06 18:35:00,
2013-05-06 13:40:00,61.4,52.3,30.12,South,191,1.0,2.0,72,0.00,,,0.00,Wunderground v.1.15,2013-05-06 18:40:00,
2013-05-06 13:45:00,61.8,51.5,30.12,West,276,1.0,2.0,69,0.00,,,0.00,Wunderground v.1.15,2013-05-06 18:45:00,
2013-05-06 13:50:00,62.4,52.9,30.12,East,82,0.0,2.0,71,0.00,,,0.00,Wunderground v.1.15,2013-05-06 18:50:00,
2013-05-06 13:55:00,63.3,52.2,30.11,WNW,297,0.0,2.0,67,0.00,,,0.00,Wunderground v.1.15,2013-05-06 18:55:00,
2013-05-06 14:00:00,63.9,53.9,30.11,WSW,254,0.0,2.0,70,0.00,,,0.00,Wunderground v.1.15,2013-05-06 19:00:00,
2013-05-06 14:05:00,64.6,53.4,30.11,WSW,253,1.0,2.0,67,0.00,,,0.00,Wunderground v.1.15,2013-05-06 19:05:00,
2013-05-06 14:15:00,64.7,52.2,30.10,WNW,287,1.0,2.0,64,0.00,,,0.00,Wunderground v.1.15,2013-05-06 19:15:00,
2013-05-06 14:20:00,65.1,53.0,30.10,WNW,283,1.0,1.0,65,0.00,,,0.00,Wunderground v.1.15,2013-05-06 19:20:00,
2013-05-06 14:25:00,65.4,52.9,30.10,SE,126,1.0,2.0,64,0.00,,,0.00,Wunderground v.1.15,2013-05-06 19:25:00,
2013-05-06 14:30:00,65.6,52.7,30.10,SSW,212,1.0,1.0,63,0.00,,,0.00,Wunderground v.1.15,2013-05-06 19:30:00,
2013-05-06 14:35:00,66.4,53.4,30.10,West,264,0.0,2.0,63,0.00,,,0.00,Wunderground v.1.15,2013-05-06 19:35:00,
2013-05-06 14:40:00,66.6,54.5,30.10,ESE,113,0.0,2.0,65,0.00,,,0.00,Wunderground v.1.15,2013-05-06 19:40:00,
2013-05-06 14:50:00,66.8,52.9,30.09,East,88,1.0,1.0,61,0.00,,,0.00,Wunderground v.1.15,2013-05-06 19:50:00,
2013-05-06 14:55:00,67.5,53.6,30.09,West,280,0.0,2.0,61,0.00,,,0.00,Wunderground v.1.15,2013-05-06 19:55:00,
2013-05-06 15:00:00,67.5,53.6,30.09,East,93,0.0,2.0,61,0.00,,,0.00,Wunderground v.1.15,2013-05-06 20:00:00,
2013-05-06 15:05:00,67.8,54.3,30.08,West,278,0.0,2.0,62,0.00,,,0.00,Wunderground v.1.15,2013-05-06 20:05:00,
2013-05-06 15:10:00,68.5,55.0,30.08,WNW,287,0.0,2.0,62,0.00,,,0.00,Wunderground v.1.15,2013-05-06 20:10:00,
2013-05-06 15:15:00,68.6,55.1,30.08,WNW,287,0.0,2.0,62,0.00,,,0.00,Wunderground v.1.15,2013-05-06 20:15:00,
2013-05-06 15:25:00,68.8,53.9,30.07,NW,311,0.0,2.0,59,0.00,,,0.00,Wunderground v.1.15,2013-05-06 20:25:00,
2013-05-06 15:35:00,69.2,53.8,30.07,ESE,118,1.0,2.0,58,0.00,,,0.00,Wunderground v.1.15,2013-05-06 20:35:00,
2013-05-06 15:40:00,69.7,54.3,30.07,ESE,113,0.0,2.0,58,0.00,,,0.00,Wunderground v.1.15,2013-05-06 20:40:00,
2013-05-06 15:45:00,69.6,54.2,30.06,ESE,117,0.0,2.0,58,0.00,,,0.00,Wunderground v.1.15,2013-05-06 20:45:00,
2013-05-06 15:50:00,70.1,54.6,30.06,West,263,0.0,2.0,58,0.00,,,0.00,Wunderground v.1.15,2013-05-06 20:50:00,
2013-05-06 15:55:00,70.2,53.8,30.06,SSW,211,0.0,2.0,56,0.00,,,0.00,Wunderground v.1.15,2013-05-06 20:55:00,
2013-05-06 16:00:00,70.3,53.9,30.06,SE,136,0.0,2.0,56,0.00,,,0.00,Wunderground v.1.15,2013-05-06 21:00:00,
2013-05-06 16:10:00,70.5,52.5,30.05,SW,229,0.0,2.0,53,0.00,,,0.00,Wunderground v.1.15,2013-05-06 21:10:00,
2013-05-06 16:15:00,70.0,53.1,30.05,West,259,0.0,2.0,55,0.00,,,0.00,Wunderground v.1.15,2013-05-06 21:15:00,
2013-05-06 16:20:00,69.5,53.1,30.05,North,358,0.0,2.0,56,0.00,,,0.00,Wunderground v.1.15,2013-05-06 21:20:00,
2013-05-06 16:25:00,69.6,54.6,30.05,ENE,74,0.0,2.0,59,0.00,,,0.00,Wunderground v.1.15,2013-05-06 21:25:00,
2013-05-06 16:30:00,69.6,53.2,30.05,East,82,1.0,1.0,56,0.00,,,0.00,Wunderground v.1.15,2013-05-06 21:30:00,
2013-05-06 16:35:00,69.9,53.0,30.04,WNW,287,1.0,2.0,55,0.00,,,0.00,Wunderground v.1.15,2013-05-06 21:35:00,
2013-05-06 16:40:00,70.2,52.8,30.04,ESE,108,0.0,2.0,54,0.00,,,0.00,Wunderground v.1.15,2013-05-06 21:40:00,
2013-05-06 16:50:00,70.5,52.5,30.04,ESE,115,0.0,2.0,53,0.00,,,0.00,Wunderground v.1.15,2013-05-06 21:50:00,
2013-05-06 16:55:00,70.7,54.2,30.03,West,259,0.0,2.0,56,0.00,,,0.00,Wunderground v.1.15,2013-05-06 21:55:00,
2013-05-06 17:00:00,70.9,54.9,30.03,SSW,197,0.0,2.0,57,0.00,,,0.00,Wunderground v.1.15,2013-05-06 22:00:00,
2013-05-06 17:05:00,70.7,53.2,30.03,ESE,104,1.0,2.0,54,0.00,,,0.00,Wunderground v.1.15,2013-05-06 22:05:00,
2013-05-06 17:10:00,70.9,54.4,30.03,East,91,1.0,2.0,56,0.00,,,0.00,Wunderground v.1.15,2013-05-06 22:10:00,
2013-05-06 17:15:00,71.3,53.8,30.03,East,82,0.0,2.0,54,0.00,,,0.00,Wunderground v.1.15,2013-05-06 22:15:00,
2013-05-06 17:20:00,71.4,53.9,30.03,SE,134,0.0,2.0,54,0.00,,,0.00,Wunderground v.1.15,2013-05-06 22:20:00,
2013-05-06 17:30:00,72.0,51.8,30.03,West,274,0.0,2.0,49,0.00,,,0.00,Wunderground v.1.15,2013-05-06 22:30:00,
2013-05-06 17:35:00,72.1,53.5,30.03,ESE,108,0.0,2.0,52,0.00,,,0.00,Wunderground v.1.15,2013-05-06 22:35:00,
2013-05-06 17:40:00,71.9,53.3,30.03,ESE,103,0.0,2.0,52,0.00,,,0.00,Wunderground v.1.15,2013-05-06 22:40:00,
2013-05-06 17:45:00,71.6,52.0,30.02,ESE,104,0.0,2.0,50,0.00,,,0.00,Wunderground v.1.15,2013-05-06 22:45:00,
2013-05-06 17:50:00,70.9,52.4,30.02,East,86,0.0,2.0,52,0.00,,,0.00,Wunderground v.1.15,2013-05-06 22:50:00,
2013-05-06 17:55:00,70.0,51.6,30.02,East,95,1.0,2.0,52,0.00,,,0.00,Wunderground v.1.15,2013-05-06 22:55:00,
2013-05-06 18:05:00,69.9,53.0,30.02,ESE,102,0.0,2.0,55,0.00,,,0.00,Wunderground v.1.15,2013-05-06 23:05:00,
2013-05-06 18:10:00,69.8,53.4,30.02,ESE,122,0.0,2.0,56,0.00,,,0.00,Wunderground v.1.15,2013-05-06 23:10:00,
2013-05-06 18:15:00,70.6,52.1,30.02,SE,129,0.0,2.0,52,0.00,,,0.00,Wunderground v.1.15,2013-05-06 23:15:00,
2013-05-06 18:20:00,70.7,51.7,30.02,SE,128,0.0,2.0,51,0.00,,,0.00,Wunderground v.1.15,2013-05-06 23:20:00,
2013-05-06 18:25:00,70.8,52.3,30.02,SE,136,0.0,2.0,52,0.00,,,0.00,Wunderground v.1.15,2013-05-06 23:25:00,
2013-05-06 18:30:00,70.3,50.8,30.02,ESE,112,0.0,2.0,50,0.00,,,0.00,Wunderground v.1.15,2013-05-06 23:30:00,
2013-05-06 18:35:00,70.1,52.7,30.02,ESE,112,0.0,2.0,54,0.00,,,0.00,Wunderground v.1.15,2013-05-06 23:35:00,
2013-05-06 18:45:00,69.8,51.9,30.02,NNW,339,0.0,2.0,53,0.00,,,0.00,Wunderground v.1.15,2013-05-06 23:45:00,
2013-05-06 18:50:00,69.4,52.0,30.01,NNE,17,0.0,2.0,54,0.00,,,0.00,Wunderground v.1.15,2013-05-06 23:50:00,
2013-05-06 18:55:00,69.1,52.2,30.01,NNE,17,0.0,2.0,55,0.00,,,0.00,Wunderground v.1.15,2013-05-06 23:55:00,
2013-05-06 19:00:00,69.4,52.0,30.01,ENE,63,0.0,2.0,54,0.00,,,0.00,Wunderground v.1.15,2013-05-07 00:00:00,
2013-05-06 19:05:00,68.9,51.6,30.02,ENE,64,0.0,2.0,54,0.00,,,0.00,Wunderground v.1.15,2013-05-07 00:05:00,
2013-05-06 19:10:00,68.6,51.8,30.02,ENE,61,0.0,2.0,55,0.00,,,0.00,Wunderground v.1.15,2013-05-07 00:10:00,
2013-05-06 19:20:00,67.7,51.4,30.02,ENE,61,0.0,2.0,56,0.00,,,0.00,Wunderground v.1.15,2013-05-07 00:20:00,
2013-05-06 19:25:00,67.3,51.5,30.02,ENE,60,0.0,2.0,57,0.00,,,0.00,Wunderground v.1.15,2013-05-07 00:25:00,
2013-05-06 19:30:00,66.9,51.6,30.02,ENE,61,0.0,2.0,58,0.00,,,0.00,Wunderground v.1.15,2013-05-07 00:30:00,
2013-05-06 19:35:00,66.5,51.7,30.02,ENE,60,0.0,2.0,59,0.00,,,0.00,Wunderground v.1.15,2013-05-07 00:35:00,
2013-05-06 19:40:00,66.2,51.9,30.02,ENE,60,0.0,2.0,60,0.00,,,0.00,Wunderground v.1.15,2013-05-07 00:40:00,
2013-05-06 19:45:00,65.9,52.1,30.02,ENE,61,0.0,2.0,61,0.00,,,0.00,Wunderground v.1.15,2013-05-07 00:45:00,
2013-05-06 19:50:00,65.8,52.0,30.02,ENE,60,0.0,2.0,61,0.00,,,0.00,Wunderground v.1.15,2013-05-07 00:50:00,
2013-05-06 20:00:00,65.6,52.2,30.02,ENE,60,0.0,2.0,62,0.00,,,0.00,Wunderground v.1.15,2013-05-07 01:00:00,
2013-05-06 20:05:00,65.2,51.8,30.02,ENE,60,0.0,2.0,62,0.00,,,0.00,Wunderground v.1.15,2013-05-07 01:05:00,
2013-05-06 20:10:00,64.9,52.0,30.02,ENE,60,0.0,2.0,63,0.00,,,0.00,Wunderground v.1.15,2013-05-07 01:10:00,
2013-05-06 20:15:00,64.5,52.0,30.02,ENE,60,0.0,2.0,64,0.00,,,0.00,Wunderground v.1.15,2013-05-07 01:15:00,
2013-05-06 20:20:00,64.0,51.6,30.02,ENE,60,0.0,2.0,64,0.00,,,0.00,Wunderground v.1.15,2013-05-07 01:20:00,
2013-05-06 20:25:00,63.6,51.6,30.03,ENE,61,0.0,2.0,65,0.00,,,0.00,Wunderground v.1.15,2013-05-07 01:25:00,
2013-05-06 20:30:00,63.2,51.6,30.03,ENE,60,0.0,2.0,66,0.00,,,0.00,Wunderground v.1.15,2013-05-07 01:30:00,
2013-05-06 20:40:00,62.3,51.6,30.03,ENE,60,0.0,2.0,68,0.00,,,0.00,Wunderground v.1.15,2013-05-07 01:40:00,
2013-05-06 20:45:00,61.9,51.6,30.03,ENE,61,0.0,2.0,69,0.00,,,0.00,Wunderground v.1.15,2013-05-07 01:45:00,
2013-05-06 20:50:00,61.5,51.2,30.03,ENE,61,0.0,2.0,69,0.00,,,0.00,Wunderground v.1.15,2013-05-07 01:50:00,
2013-05-06 20:55:00,61.1,51.2,30.03,ENE,61,0.0,2.0,70,0.00,,,0.00,Wunderground v.1.15,2013-05-07 01:55:00,
2013-05-06 21:00:00,60.8,51.3,30.03,ENE,61,0.0,2.0,71,0.00,,,0.00,Wunderground v.1.15,2013-05-07 02:00:00,
2013-05-06 21:05:00,60.5,51.4,30.03,ENE,61,0.0,2.0,72,0.00,,,0.00,Wunderground v.1.15,2013-05-07 02:05:00,
2013-05-06 21:15:00,60.0,51.3,30.04,ENE,61,0.0,2.0,73,0.00,,,0.00,Wunderground v.1.15,2013-05-07 02:15:00,
2013-05-06 21:25:00,59.4,51.1,30.04,ENE,61,0.0,2.0,74,0.00,,,0.00,Wunderground v.1.15,2013-05-07 02:25:00,
2013-05-06 21:30:00,59.3,51.0,30.05,ENE,61,0.0,2.0,74,0.00,,,0.00,Wunderground v.1.15,2013-05-07 02:30:00,
2013-05-06 21:35:00,59.3,51.0,30.05,ENE,60,0.0,2.0,74,0.00,,,0.00,Wunderground v.1.15,2013-05-07 02:35:00,
2013-05-06 21:40:00,59.3,51.4,30.05,ENE,60,0.0,2.0,75,0.00,,,0.00,Wunderground v.1.15,2013-05-07 02:40:00,
2013-05-06 21:45:00,59.2,50.9,30.05,ENE,61,0.0,2.0,74,0.00,,,0.00,Wunderground v.1.15,2013-05-07 02:45:00,
2013-05-06 21:50:00,59.0,51.1,30.05,ENE,61,0.0,2.0,75,0.00,,,0.00,Wunderground v.1.15,2013-05-07 02:50:00,
2013-05-06 22:00:00,58.6,50.7,30.05,ENE,60,0.0,2.0,75,0.00,,,0.00,Wunderground v.1.15,2013-05-07 03:00:00,
2013-05-06 22:05:00,58.2,50.7,30.05,ENE,61,0.0,2.0,76,0.00,,,0.00,Wunderground v.1.15,2013-05-07 03:05:00,
2013-05-06 22:10:00,57.9,50.4,30.05,ENE,60,0.0,2.0,76,0.00,,,0.00,Wunderground v.1.15,2013-05-07 03:10:00,
2013-05-06 22:15:00,57.6,50.4,30.05,ENE,61,0.0,2.0,77,0.00,,,0.00,Wunderground v.1.15,2013-05-07 03:15:00,
2013-05-06 22:20:00,57.6,50.4,30.05,ENE,60,0.0,2.0,77,0.00,,,0.00,Wunderground v.1.15,2013-05-07 03:20:00,
2013-05-06 22:25:00,57.3,50.5,30.06,ENE,60,0.0,2.0,78,0.00,,,0.00,Wunderground v.1.15,2013-05-07 03:25:00,
2013-05-06 22:30:00,57.0,50.5,30.06,ENE,61,0.0,2.0,79,0.00,,,0.00,Wunderground v.1.15,2013-05-07 03:30:00,
2013-05-06 22:40:00,56.4,50.3,30.05,ENE,61,0.0,2.0,80,0.00,,,0.00,Wunderground v.1.15,2013-05-07 03:40:00,
2013-05-06 22:45:00,56.1,50.0,30.05,ENE,61,0.0,2.0,80,0.00,,,0.00,Wunderground v.1.15,2013-05-07 03:45:00,
2013-05-06 22:50:00,55.7,49.6,30.05,ENE,61,0.0,2.0,80,0.00,,,0.00,Wunderground v.1.15,2013-05-07 03:50:00,
2013-05-06 22:55:00,55.4,49.3,30.05,ENE,61,0.0,2.0,80,0.00,,,0.00,Wunderground v.1.15,2013-05-07 03:55:00,
2013-05-06 23:00:00,55.2,50.1,30.05,ENE,61,0.0,2.0,83,0.00,,,0.00,Wunderground v.1.15,2013-05-07 04:00:00,
2013-05-06 23:05:00,55.1,50.0,30.05,ENE,60,0.0,2.0,83,0.00,,,0.00,Wunderground v.1.15,2013-05-07 04:05:00,
2013-05-06 23:10:00,55.1,50.0,30.05,ENE,61,0.0,2.0,83,0.00,,,0.00,Wunderground v.1.15,2013-05-07 04:10:00,
2013-05-06 23:15:00,55.0,49.9,30.05,ENE,60,0.0,2.0,83,0.00,,,0.00,Wunderground v.1.15,2013-05-07 04:15:00,
2013-05-06 23:20:00,54.9,50.2,30.05,ENE,60,0.0,2.0,84,0.00,,,0.00,Wunderground v.1.15,2013-05-07 04:20:00,
2013-05-06 23:25:00,54.6,49.5,30.05,ENE,61,0.0,2.0,83,0.00,,,0.00,Wunderground v.1.15,2013-05-07 04:25:00,
2013-05-06 23:30:00,54.4,49.3,30.05,ENE,61,0.0,2.0,83,0.00,,,0.00,Wunderground v.1.15,2013-05-07 04:30:00,
2013-05-06 23:35:00,54.1,49.1,30.05,ENE,60,0.0,2.0,83,0.00,,,0.00,Wunderground v.1.15,2013-05-07 04:35:00,
2013-05-06 23:40:00,53.8,49.4,30.05,ENE,60,0.0,2.0,85,0.00,,,0.00,Wunderground v.1.15,2013-05-07 04:40:00,
2013-05-06 23:45:00,53.7,49.6,30.05,ENE,61,0.0,2.0,86,0.00,,,0.00,Wunderground v.1.15,2013-05-07 04:45:00,
2013-05-06 23:55:00,53.4,49.3,30.05,ENE,60,0.0,2.0,86,0.00,,,0.00,Wunderground v.1.15,2013-05-07 04:55:00,